Theta_e
304 303 304 305 303 304 304 303 303 303 302 303 301 302 302 302 301 301 302 304 304 304 305 305 304 304 304 304 305 305 305 304 303 304 304 303 301 300 301 301 302 302 302 302
303 303 304 304 304 304 303 303 303 303 301 302 300 299 300 299 300 302 301 303 304 304 304 304 304 304 304 304 305 305 304 303 304 304 303 300 301 301 301 301 301 302 302 302
303 304 304 304 304 305 304 304 303 303 301 300 300 300 301 302 300 301 302 303 304 304 304 305 305 305 304 304 305 304 303 304 303 303 301 300 300 301 301 301 302 302 302 301
303 304 303 303 304 303 304 303 304 303 302 302 302 303 303 304 304 302 300 301 303 304 304 305 305 305 305 304 304 303 304 303 302 301 300 300 300 301 301 302 302 302 301 301
300 302 303 303 304 302 303 301 302 302 301 302 302 300 302 303 304 304 301 301 302 303 304 305 305 305 305 304 304 304 303 302 302 300 300 300 300 301 302 302 302 301 301 301
300 300 302 302 301 302 302 302 303 303 302 295 300 300 301 304 306 305 302 303 302 302 303 304 305 305 304 304 304 303 303 302 300 299 300 300 300 301 302 301 301 301 301 301
300 299 300 301 301 302 302 302 303 298 295 299 302 301 301 303 304 303 303 302 304 302 303 304 305 305 304 304 303 303 303 301 300 299 300 300 301 301 301 301 301 301 301 301
301 300 299 300 302 302 302 304 303 297 300 304 300 304 306 304 302 304 305 305 304 303 303 304 305 305 304 304 303 303 302 301 299 299 300 300 301 301 301 301 301 300 300 299
301 301 298 299 300 302 302 303 302 299 292 297 303 302 302 301 302 302 301 303 303 303 304 304 305 305 305 304 304 303 302 301 300 299 300 300 301 301 301 300 300 300 299 299
302 304 298 299 299 300 301 300 303 297 297 299 302 304 306 304 302 302 301 301 304 305 305 305 305 305 305 305 304 302 302 300 299 299 300 300 301 301 300 300 299 299 299 299
304 306 301 299 298 299 300 302 301 303 302 299 300 307 303 305 302 302 300 303 305 306 306 306 306 306 305 304 303 302 301 300 299 299 300 300 300 301 300 298 298 299 299 299
301 304 301 301 300 299 301 301 302 307 304 300 300 305 303 301 300 301 301 304 305 306 306 307 306 306 304 303 302 302 300 299 298 299 300 300 301 300 299 297 297 299 299 298
300 301 298 304 298 297 300 300 300 301 303 310 304 306 302 300 301 300 301 303 305 306 306 306 306 305 305 303 302 301 300 299 298 299 300 300 300 300 296 295 296 299 299 298
302 301 299 305 303 299 298 298 300 303 303 302 307 305 306 302 299 299 300 303 303 304 306 306 306 305 304 303 302 301 299 298 299 299 299 300 300 299 295 295 295 297 299 298
301 300 297 298 299 298 299 299 299 300 302 303 302 303 301 304 302 298 301 301 301 303 304 305 305 304 303 302 301 300 299 297 299 299 299 300 300 298 295 294 293 294 297 298
293 303 304 304 303 303 305 303 299 299 299 298 298 299 299 302 304 301 301 300 301 303 304 304 304 303 302 302 301 300 298 296 299 299 299 300 299 297 294 294 292 293 293 294
292 296 297 305 301 303 304 303 304 304 296 298 299 300 300 301 298 300 303 301 302 303 303 303 304 304 302 302 301 299 298 297 299 299 299 299 299 296 294 294 292 293 293 292
291 293 300 303 297 305 304 301 302 304 304 302 299 298 299 301 302 302 302 304 304 302 303 304 304 305 302 301 299 298 297 297 299 299 299 299 299 297 293 294 293 292 293 293
292 293 297 303 304 301 303 301 300 302 304 303 302 301 302 299 299 300 301 301 303 304 304 305 304 304 302 301 299 297 296 298 299 299 299 299 298 297 293 294 293 292 292 293
294 295 296 301 305 301 303 300 299 301 304 303 301 302 300 299 300 301 303 303 303 303 304 304 304 303 303 300 298 297 297 299 299 299 298 298 298 297 294 293 293 292 292 292
297 300 300 303 304 296 299 298 299 304 306 299 299 300 298 298 300 302 300 302 303 303 304 303 303 301 300 299 298 297 298 298 299 298 298 298 298 297 294 293 293 293 292 292
294 299 302 302 301 300 297 297 303 303 298 299 300 300 299 300 301 301 298 298 298 299 299 298 299 299 299 298 298 298 298 298 298 298 298 298 298 298 296 293 292 293 292 291
297 295 293 300 299 297 297 297 297 297 297 298 300 301 301 299 298 299 301 302 301 301 301 302 302 302 302 300 298 298 299 298 298 297 298 298 298 297 297 294 292 292 292 291
290 292 291 294 296 293 294 297 297 295 294 298 298 300 300 300 300 301 302 302 303 303 303 303 303 303 302 301 301 301 299 298 297 297 297 297 297 297 297 295 292 291 292 292
289 289 291 290 293 296 297 295 295 296 297 300 299 299 299 304 309 308 308 307 307 307 306 304 304 302 302 301 301 301 300 299 298 297 296 296 296 296 296 296 294 293 291 291
288 289 291 291 293 294 295 295 292 293 296 298 299 298 299 305 306 306 305 303 302 302 302 302 302 302 302 301 301 301 300 299 299 298 297 296 296 296 296 296 295 293 292 291
Wind_Speed
4 2 10 13 5 3 3 3 2 3 1 4 9 10 15 14 14 19 24 27 28 31 27 29 30 28 25 25 28 26 23 18 14 12 12 14 18 18 18 19 20 22 23 25
3 11 8 5 6 6 8 4 8 5 1 4 5 14 14 9 12 25 31 35 33 29 30 32 31 28 28 29 28 25 21 16 13 12 13 15 16 17 18 19 20 22 24 25
7 3 3 9 5 7 7 8 4 6 0 3 3 9 7 6 16 18 30 35 38 36 38 36 33 29 28 29 26 23 19 15 13 12 14 15 16 17 18 19 20 21 23 24
6 5 5 4 6 7 5 7 7 5 4 4 2 5 5 4 8 7 16 29 35 40 42 41 36 32 30 28 26 22 18 15 13 13 15 14 14 17 18 20 21 21 22 24
7 4 4 5 4 7 6 2 5 3 3 3 2 2 7 2 8 13 10 25 32 40 45 45 40 34 29 28 26 22 18 15 13 13 13 13 14 16 17 18 18 20 22 25
4 1 4 2 2 1 5 4 6 4 3 2 8 8 7 5 9 5 3 21 28 34 40 43 39 34 29 27 25 22 18 16 13 13 12 12 13 15 15 16 19 21 24 26
1 3 2 3 3 4 2 4 1 3 2 6 2 3 9 8 7 5 8 19 25 30 37 42 41 36 32 30 27 23 20 17 14 13 12 11 12 14 15 17 20 23 26 28
4 5 7 3 4 6 6 6 5 7 4 4 1 7 7 5 6 19 18 17 22 29 36 41 41 37 32 29 26 23 20 18 15 13 12 11 11 12 14 17 20 22 26 28
6 6 2 4 1 1 5 5 4 4 1 3 3 7 10 7 5 2 11 21 24 29 35 39 39 35 31 29 26 23 21 19 16 13 11 10 10 11 13 15 19 22 25 27
5 2 1 0 3 2 3 2 2 2 2 4 5 6 5 4 8 5 7 14 27 29 32 36 35 32 30 27 24 23 22 20 16 13 10 9 9 11 12 15 18 21 24 26
4 4 0 2 6 8 2 2 1 1 4 5 1 6 7 10 7 11 9 22 32 34 35 34 32 30 28 26 25 23 22 20 17 12 10 8 9 11 12 14 16 20 23 24
7 3 4 8 2 3 4 7 8 6 6 3 3 8 1 3 5 9 16 30 33 35 35 32 29 29 28 26 25 23 22 21 16 12 10 9 9 10 11 12 15 18 21 23
3 4 1 4 4 1 5 7 5 2 3 15 2 6 2 4 2 10 18 29 33 33 32 31 30 30 28 26 25 24 23 21 17 13 11 10 10 10 9 10 12 15 19 20
8 3 7 10 6 6 6 8 15 14 4 7 22 8 16 6 8 5 15 32 30 29 29 31 32 31 27 24 25 24 23 21 17 14 12 10 11 10 8 10 10 13 15 17
3 6 5 5 5 5 5 5 15 19 23 11 8 18 10 15 7 8 12 22 25 28 29 31 31 30 28 27 27 25 23 21 18 15 14 12 13 9 8 9 8 11 13 16
14 5 5 5 7 8 5 8 9 17 16 16 17 23 8 14 12 6 17 21 28 31 32 29 28 27 28 28 28 27 25 23 20 17 15 14 14 10 9 9 6 10 12 14
8 7 1 17 5 4 6 21 19 14 10 12 17 25 9 13 7 14 24 27 31 34 32 25 26 27 29 28 26 27 25 24 22 19 17 15 15 11 10 10 5 8 11 11
15 17 8 7 3 11 11 4 14 19 23 21 13 14 13 21 36 31 25 25 25 31 31 29 25 24 25 23 24 24 25 26 23 20 19 18 17 13 12 10 7 6 9 11
22 16 6 5 10 6 4 7 8 9 9 22 22 27 23 17 15 23 25 27 34 38 31 21 18 18 20 23 24 26 29 28 25 22 20 19 18 15 14 11 8 6 8 9
18 19 12 3 9 10 11 4 7 5 5 4 16 21 12 10 8 10 26 27 25 27 27 21 17 21 23 23 25 27 29 28 26 22 19 19 19 17 15 14 11 8 8 8
5 12 20 14 4 7 6 4 6 6 4 3 3 9 10 9 9 4 8 14 23 27 28 25 19 18 17 19 23 26 27 27 21 19 20 22 21 19 17 17 13 11 9 9
6 5 7 9 6 6 8 5 6 2 4 4 6 6 9 18 12 10 6 10 12 12 14 15 13 13 15 18 21 23 24 19 20 22 24 23 21 21 20 18 17 14 12 11
3 4 4 4 4 5 5 10 20 19 17 13 9 1 6 14 14 9 5 5 5 5 5 6 9 12 14 17 20 22 20 20 22 25 26 25 23 23 23 22 21 19 15 13
9 4 7 10 1 20 22 9 29 33 31 25 14 5 9 11 7 6 5 6 6 6 3 3 6 8 11 15 18 18 19 20 25 28 29 28 28 26 26 25 24 22 20 16
7 7 8 13 13 13 4 30 36 42 34 27 13 8 5 5 5 3 2 3 5 6 10 12 12 12 11 12 13 14 17 21 26 29 31 32 31 30 28 28 26 24 21 20
6 7 7 7 18 18 20 29 41 36 32 33 19 19 10 5 4 5 8 9 8 7 10 13 15 17 16 19 20 20 21 24 26 29 32 34 34 33 32 31 29 28 25 23
Wind_Direction
187 137 214 205 192 206 147 197 239 256 226 183 235 260 257 262 262 246 241 227 219 219 216 207 204 213 218 214 211 218 231 230 225 237 257 274 285 291 296 301 306 309 311 310
101 239 231 186 206 224 260 259 269 269 241 185 294 268 261 234 242 232 230 228 223 213 202 198 204 213 218 214 212 220 221 220 229 246 267 282 293 298 304 310 313 314 314 312
173 217 185 184 200 202 234 231 222 226 311 249 319 283 243 253 233 238 236 237 223 209 197 195 201 206 207 210 214 215 215 219 233 254 270 285 297 305 309 313 315 318 318 318
234 252 195 175 210 181 250 211 202 199 149 227 139 276 287 262 268 229 229 221 219 207 202 198 200 201 207 210 211 211 214 222 239 259 274 288 300 309 316 321 323 325 323 321
238 198 178 189 203 165 235 146 179 175 167 55 200 48 270 305 278 256 216 217 214 209 203 198 200 206 206 208 207 209 216 226 242 264 280 294 306 313 317 320 323 323 324 326
248 290 178 212 88 246 149 75 47 44 70 329 212 172 272 213 219 263 245 205 206 204 203 202 201 203 204 204 207 211 219 231 245 267 285 298 306 312 316 319 322 327 330 329
268 225 187 160 92 29 100 103 336 341 352 224 88 184 249 253 247 231 242 208 195 199 198 197 197 198 201 205 206 212 222 232 249 271 285 295 305 311 317 323 326 329 331 330
169 302 173 196 212 185 185 167 167 210 209 244 346 233 241 253 264 251 261 211 187 193 197 195 197 200 205 207 209 216 225 233 250 269 279 291 302 312 319 323 326 332 332 331
182 253 174 145 351 98 189 187 176 98 101 44 229 279 294 250 262 208 167 173 184 188 191 195 198 204 208 209 214 223 229 235 249 264 273 286 300 307 314 322 329 333 333 332
223 275 185 174 134 143 198 283 102 9 227 257 273 277 235 262 231 202 180 179 183 185 187 192 200 206 210 214 220 227 230 236 246 253 262 277 291 301 313 325 330 334 336 335
153 178 259 93 221 172 141 249 41 200 172 193 238 253 220 234 196 200 206 194 185 187 192 196 202 207 212 217 223 227 233 235 242 244 254 267 283 297 314 324 333 338 342 343
213 187 185 208 238 214 172 203 180 191 235 229 173 258 299 292 266 206 202 198 195 196 197 199 202 208 212 217 222 230 233 234 236 236 245 257 274 290 307 325 336 344 346 351
218 227 55 320 352 249 208 216 218 65 98 241 182 262 321 268 329 231 196 201 199 199 202 203 206 210 213 217 224 229 229 230 227 229 237 249 266 281 305 324 340 346 355 358
10 283 203 206 182 139 201 194 208 213 228 222 237 265 291 313 310 280 210 203 203 201 202 205 208 212 215 221 226 228 225 227 223 225 233 240 258 273 297 315 341 347 355 4
242 242 198 253 292 150 192 196 195 205 224 210 266 236 236 261 248 247 240 207 199 199 202 207 213 216 219 224 226 226 225 223 221 224 230 238 252 264 285 306 336 346 347 5
327 281 203 251 248 236 248 232 218 227 229 249 258 266 250 262 232 246 227 206 201 202 205 212 221 225 226 229 228 227 224 220 219 224 229 235 246 254 275 295 328 342 345 0
285 282 267 251 193 132 261 236 231 229 210 211 230 243 213 255 215 221 233 217 217 214 212 220 232 237 234 230 228 226 223 218 219 222 227 233 240 246 261 283 308 333 333 347
249 260 267 254 150 225 232 191 225 223 237 225 249 247 219 227 243 249 237 239 236 228 238 245 240 241 229 226 227 224 219 218 219 222 226 229 235 238 251 268 290 318 325 342
212 228 263 228 220 290 261 199 176 180 254 218 224 243 245 237 251 262 255 246 242 244 259 232 229 236 226 226 222 218 215 217 219 222 227 229 234 233 245 258 272 290 310 331
202 207 214 202 214 213 235 194 187 149 289 222 214 242 249 156 233 254 247 246 249 250 245 232 243 231 222 219 218 217 217 218 223 223 227 230 235 234 240 250 259 271 291 312
233 216 215 223 271 283 246 164 167 134 236 319 227 242 178 195 212 255 297 247 242 242 234 228 243 215 213 217 218 218 217 224 227 223 225 230 236 236 235 246 254 260 272 289
208 277 201 210 216 264 162 91 184 282 327 312 316 292 230 214 220 220 114 89 96 125 158 178 192 207 214 218 220 222 225 228 224 224 230 235 236 238 238 240 246 247 256 270
222 1 310 307 223 354 333 20 24 5 339 333 338 34 142 136 133 129 110 98 110 134 163 198 217 225 227 228 230 231 234 230 228 230 235 238 239 237 238 239 242 247 249 257
350 20 317 327 262 319 320 39 7 355 345 328 322 155 139 120 104 99 98 76 49 39 19 277 257 257 252 247 245 248 245 240 238 238 240 240 239 240 239 240 240 243 248 250
272 301 290 285 272 326 47 350 339 334 344 336 276 255 232 140 66 29 318 312 328 336 318 293 271 266 261 260 256 255 253 248 244 243 242 242 242 241 241 242 244 247 249 252
210 243 266 281 296 300 294 316 328 325 338 343 305 248 275 189 196 190 262 251 255 247 248 257 261 265 267 266 263 259 257 255 252 249 246 244 244 243 242 242 242 243 244 246